DECAYED

STARLINK-2619, 48475 (Decayed)

Orbit data source: Space-Track

STARLINK-2619, 48475 was a payload satellite owned by SpaceX/Seattle (US) in LEO that was launched on Sun, 09 May 2021 UTC via an FALCON 9 launch vehicle from the Air Force Eastern Test Range (AFETR). Payload-class satellites include a variety of spacecraft equipped with specific instruments for various scientific and technological missions. These include communications satellites like Starlink; space stations such as the ISS; scientific satellites like the Hubble; Earth observation satellites from companies like Planet Labs, Umbra, and HawkEye 360; GPS; miniature CubeSats for education and research; and military/defense satellites.

Not visible in the next 10 days
Identifier
48475, 2021-040AZ
Orbit
Decayed
Country
Flag of USUS
Related business
Manufacturer
SpaceX/Seattle
Mission
Decayed Commercial Communications
Bus & Motor
STARLINK, Unknown motor
Mass
260 kg wet, ~248 kg dry
Launch date (UTC)
2021-05-09 (5 years ago)
Launch vehicle
FALCON 9
Launch site
Air Force Eastern Test Range (AFETR)
Object type
Payload
Rocket body
Debris
Shape & HBR
Box + 1 Pan, 10.1 m
Radar Cross Section
13.562 m², Large (>1 m²)

Expand to show TLE details & history
Last TLE update: 5 months ago

TLE from 5 months ago
0 STARLINK-2619
1 48475U 21040AZ  26022.81210558  .09368473  12295-4  78255-3 0  9990
2 48475  53.0028 296.8076 0002495 204.3405 155.7523 16.38886218260988
Epoch: 2026-01-22T19:29Z
TLE epoch observation values (Epoch: 2026-01-22T19:29:25.922Z)
Latitude
Longitude
-117.71031°
Altitude
171.18 km
Speed
7.804 km/s
True Right ascension
19h 47m 13s
True Declination
0° 00' 00"
Sunlit
Object was in daylight at epoch
Visualization orbit readout
Latitude
Unknown
Longitude
Unknown
Altitude
Unknown
Speed
Unknown
Apparent Right ascension
Unknown
Apparent Declination
Unknown
Sunlit
N/A
Visualization observer readout
Local Sidereal Time
21:26:25
Azimuth
Unknown
Elevation
Unknown
Doppler factor
Unknown
Orbital elements
Apogee altitude
170.695 km
Perigee altitude
167.428 km
Semi-major axis
6,547.199 km
Eccentricity
0.00025
Inclination
53.0028°
RAAN
296.8076°
Arg. of periapsis
204.3405°
True anomaly
155.76404°
Mean anomaly
155.7523°
Eccentric anomaly
155.75817°
Mean motion
4.09694 °/min
Orbital period
87.87 mins
BSTAR
0.00078255
Loading maneuver chart data...
Computing Atmospheric mass density...

Documentation

Showing up to 5 results
|